Regional Weather Roundup
Issued by NWS Portland, ME

Current Version | Previous Version | Text Only | Print | Product List | Glossary Off
Versions: 1 2 3 4 5 6 7 8 9 10 11 12 13 14 15 16 17 18 19 20 21 22 23 24 25 26 27 28 29 30 31 32 33 34 35 36 37 38 39 40 41 42 43 44 45 46 47 48 49 50
000 ASUS41 KGYX 211205 RWRGYX WEATHER ROUNDUP FOR MAINE AND NEW HAMPSHIRE NATIONAL WEATHER SERVICE GRAY ME 800 AM EDT TUE AUG 21 2018 MEZ002-005-006-010-012-015-018-020-021-024-026-027-029-211300- MAINE CITY SKY/WX TMP DP RH WIND PRES REMARKS PORTLAND CLOUDY 60 60 100 CALM 30.17S FOG 6HR MIN TEMP: 56; 6HR MAX TEMP: 60; SANFORD CLOUDY 59 57 94 CALM 30.18R BAR HARBOR FAIR 58 58 100 CALM 30.17S WISCASSET FAIR 60 58 92 CALM 30.18R 6HR MIN TEMP: 49; 6HR MAX TEMP: 60; ROCKLAND FAIR 62 60 93 VRB3 30.17 FRYEBURG FOG 56 56 100 W3 30.19R VSB 1/4 6HR MIN TEMP: 50; 6HR MAX TEMP: 57; LEWISTONAUBURN N/A 55 55 100 CALM 30.18S AUGUSTA PTSUNNY 58 58 100 CALM 30.18R 6HR MIN TEMP: 54; 6HR MAX TEMP: 58; WATERVILLE FOG 57 57 100 CALM 30.16R VSB 1/4 BANGOR FAIR 62 58 86 CALM 30.17R 6HR MIN TEMP: 53; 6HR MAX TEMP: 62; GREENVILLE N/A 61 58 90 SE3 30.16R 6HR MIN TEMP: 54; 6HR MAX TEMP: 61; MILLINOCKET FOG 57 56 96 CALM 30.18S VSB 1/4 6HR MIN TEMP: 52; 6HR MAX TEMP: 57; HOULTON FAIR 57 55 93 CALM 30.16F 6HR MIN TEMP: 45; 6HR MAX TEMP: 57; PRESQUE ISLE FAIR 56 54 93 CALM 30.17S 6HR MIN TEMP: 47; 6HR MAX TEMP: 56; FRENCHVILLE FAIR 60 54 80 SE5 30.15S 6HR MIN TEMP: 54; 6HR MAX TEMP: 60; CARIBOU FAIR 58 54 86 CALM 30.16S 6HR MIN TEMP: 51; 6HR MAX TEMP: 58; $$ NHZ002-005-008-009-011-012-014-211300- NEW HAMPSHIRE CITY SKY/WX TMP DP RH WIND PRES REMARKS PORTSMOUTH MOSUNNY 62 59 90 W3 30.15R ROCHESTER FAIR 59 58 96 NW5 30.17R 6HR MIN TEMP: 53; 6HR MAX TEMP: 59; NASHUA CLOUDY 59 59 100 NW5 30.17F FOG MANCHESTER FOG 60 59 96 W3 30.15F VSB 1/2 6HR MIN TEMP: 58; 6HR MAX TEMP: 62; CONCORD FOG 57 57 100 CALM 30.18R VSB<1/4 6HR MIN TEMP: 53; 6HR MAX TEMP: 57; LACONIA CLOUDY 60 59 96 S3 30.18R FOG PLYMOUTH CLOUDY 56 55 97 CALM 30.18R FOG BERLIN FOG 55 55 100 CALM 30.19R VSB 1/4 6HR MIN TEMP: 49; 6HR MAX TEMP: 55; WHITEFIELD CLOUDY 54 54 100 CALM 30.18S FOG 6HR MIN TEMP: 48; 6HR MAX TEMP: 54; JAFFREY FOG 57 57 100 CALM 30.19R VSB 3/4 6HR MIN TEMP: 53; 6HR MAX TEMP: 57; KEENE FOG N/A N/A N/A CALM 30.18 VSB 1/4 LEBANON CLOUDY 58 55 90 NE5 30.17S FOG 6HR MIN TEMP: 54; 6HR MAX TEMP: 58; MT WASHINGTON MOSUNNY 46 41 81 SE6 N/A 6HR MIN TEMP: 44; 6HR MAX TEMP: 55; $$ VTZ005-007-008-211300- VERMONT CITY SKY/WX TMP DP RH WIND PRES REMARKS ST JOHNSBURY N/A 54 54 100 MISG 30.16S MONTPELIER CLOUDY 58 58 100 CALM 30.19F BURLINGTON PTSUNNY 68 57 68 S9 30.11S $$ MAZ007-012-024-CTZ003-RIZ002-NYZ038-NYZ072-211300- SOUTHERN NEW ENGLAND AND NY CITY SKY/WX TMP DP RH WIND PRES REMARKS BOSTON CLOUDY 67 63 87 N9 30.15S WORCESTER FAIR 61 59 93 E5 30.16S NANTUCKET CLOUDY 66 66 100 NE12 30.10R PROVIDENCE CLOUDY 67 61 81 N9 30.14S HARTFORD PTSUNNY 61 60 97 NW3 30.16R ALBANY PTSUNNY 68 59 73 VRB3 30.11F NEW YORK CITY FAIR 70 62 76 E9 30.11S $$ ANZ081-ANZ082-ANZ150-NHZ014-MEZ023>029-211300- COASTAL MARINE OBSERVATIONS STATION/POSITION TIME TEMP WIND PRES WAVE AIR SEA DIR/SP/G HT/PER (UTC) (F) (DEG/KT/KT) (MB) (FT/S) MOUNT DESERT ROC 1200 58 10/ 10/ 10 1021.4R MATINICUS ROCK 1100 60 40/ 7/ 7 1020.9R ISLE OF SHOALS 1100 63 10/ 6/ 6 1020.6R JEFFREYS LEDGE 1136 69 N/A 4/ 8 $$ .............KEY.............. WCI - WIND CHILL TC - TEMPERATURE IN CELSIUS VSB - VISIBILITY IN MILES HX - HEAT INDEX FAIR- INDICATES FEW OR NO CLOUDS BELOW 12,000 FT, WITH NO SIGNIFICANT WEATHER AND/OR OBSTRUCTIONS TO VISIBILITY.

USA.gov is the U.S. government's official web portal to all federal, state and local government web resources and services.